Total_Precipitation_Accumulation
0.00 0.01 0.04 0.03 0.01 0.01 0.02 0.03 0.05 0.05 0.06 0.08 0.10 0.10 0.07 0.05 0.03 0.03 0.04 0.03 0.03 0.03 0.03 0.04 0.06 0.05 0.06 0.06 0.05 0.02 0.01 0.01 0.01 0.01 0.01 0.01 0.01 0.02 0.03 0.02 0.10 0.10 0.04
0.00 0.01 0.03 0.02 0.01 0.01 0.02 0.03 0.04 0.04 0.04 0.05 0.08 0.09 0.06 0.04 0.03 0.02 0.04 0.06 0.05 0.04 0.04 0.05 0.04 0.04 0.05 0.06 0.03 0.01 0.00 0.00 0.01 0.01 0.01 0.01 0.01 0.01 0.02 0.02 0.09 0.08 0.02
0.00 0.00 0.02 0.02 0.02 0.01 0.02 0.03 0.05 0.04 0.03 0.03 0.05 0.05 0.04 0.03 0.03 0.02 0.03 0.09 0.11 0.09 0.06 0.03 0.02 0.02 0.02 0.02 0.02 0.01 0.01 0.00 0.01 0.01 0.02 0.06 0.02 0.02 0.03 0.02 0.02 0.01 0.01
0.00 0.00 0.01 0.02 0.01 0.01 0.01 0.01 0.03 0.04 0.04 0.06 0.07 0.06 0.05 0.04 0.04 0.03 0.03 0.06 0.09 0.07 0.07 0.03 0.02 0.02 0.01 0.01 0.01 0.01 0.02 0.01 0.01 0.01 0.06 0.20 0.11 0.04 0.06 0.06 0.05 0.03 0.02
0.00 0.00 0.02 0.02 0.01 0.01 0.01 0.01 0.03 0.04 0.05 0.08 0.08 0.07 0.07 0.07 0.06 0.05 0.05 0.06 0.06 0.04 0.04 0.04 0.03 0.02 0.01 0.01 0.01 0.02 0.02 0.01 0.01 0.01 0.04 0.13 0.15 0.09 0.07 0.11 0.11 0.10 0.07
0.00 0.00 0.02 0.02 0.01 0.01 0.01 0.01 0.02 0.03 0.04 0.06 0.06 0.05 0.06 0.05 0.07 0.07 0.06 0.08 0.09 0.08 0.05 0.06 0.06 0.07 0.05 0.03 0.02 0.02 0.02 0.02 0.02 0.02 0.04 0.04 0.15 0.15 0.11 0.20 0.25 0.25 0.20
0.00 0.01 0.02 0.02 0.01 0.01 0.01 0.02 0.02 0.02 0.03 0.04 0.04 0.03 0.03 0.03 0.04 0.05 0.06 0.06 0.07 0.09 0.09 0.09 0.10 0.07 0.09 0.08 0.05 0.04 0.03 0.04 0.03 0.02 0.02 0.03 0.12 0.10 0.16 0.37 0.53 0.51 0.41
0.00 0.01 0.02 0.02 0.01 0.01 0.01 0.01 0.02 0.02 0.02 0.02 0.02 0.02 0.01 0.02 0.03 0.04 0.04 0.04 0.02 0.03 0.05 0.08 0.12 0.11 0.09 0.13 0.11 0.07 0.06 0.07 0.06 0.03 0.03 0.06 0.10 0.12 0.23 0.47 0.63 0.62 0.54
0.00 0.00 0.01 0.01 0.02 0.02 0.01 0.01 0.01 0.01 0.01 0.01 0.01 0.01 0.01 0.01 0.01 0.01 0.02 0.01 0.01 0.01 0.03 0.04 0.05 0.06 0.07 0.11 0.15 0.14 0.11 0.10 0.11 0.16 0.09 0.16 0.20 0.25 0.42 0.59 0.72 0.72 0.67
0.01 0.00 0.01 0.01 0.01 0.01 0.01 0.01 0.01 0.01 0.01 0.01 0.01 0.01 0.01 0.01 0.01 0.01 0.01 0.01 0.01 0.01 0.02 0.02 0.03 0.04 0.06 0.08 0.11 0.18 0.22 0.15 0.06 0.09 0.20 0.18 0.17 0.37 0.63 0.76 0.89 0.92 0.89
0.01 0.01 0.01 0.00 0.01 0.01 0.01 0.00 0.01 0.01 0.01 0.01 0.01 0.01 0.01 0.00 0.02 0.06 0.04 0.04 0.04 0.06 0.07 0.08 0.07 0.08 0.10 0.09 0.14 0.27 0.29 0.13 0.07 0.09 0.15 0.13 0.18 0.46 0.77 0.91 0.97 1.03 1.04
0.01 0.01 0.01 0.00 0.00 0.01 0.01 0.01 0.00 0.00 0.01 0.01 0.04 0.05 0.05 0.05 0.07 0.04 0.04 0.08 0.16 0.23 0.25 0.31 0.36 0.28 0.23 0.31 0.67 0.67 0.20 0.10 0.12 0.12 0.16 0.11 0.23 0.53 0.82 1.04 1.13 1.11 1.10
0.00 0.00 0.00 0.01 0.01 0.01 0.01 0.01 0.00 0.00 0.02 0.02 0.04 0.10 0.14 0.10 0.07 0.02 0.02 0.11 0.24 0.26 0.32 0.48 0.54 0.41 0.48 0.65 0.66 0.62 0.23 0.14 0.13 0.12 0.19 0.20 0.29 0.62 0.98 1.21 1.34 1.27 1.20
0.00 0.00 0.00 0.01 0.01 0.02 0.01 0.01 0.01 0.00 0.01 0.01 0.03 0.05 0.11 0.14 0.09 0.09 0.12 0.15 0.27 0.34 0.46 0.47 0.58 0.45 0.49 0.48 0.38 0.34 0.31 0.36 0.25 0.32 0.47 0.34 0.29 0.52 1.00 1.26 1.44 1.45 1.23
0.00 0.00 0.01 0.01 0.03 0.04 0.04 0.05 0.04 0.02 0.01 0.01 0.02 0.03 0.08 0.14 0.17 0.25 0.27 0.31 0.23 0.29 0.44 0.56 0.44 0.51 0.53 0.44 0.35 0.32 0.30 0.30 0.28 0.43 0.50 0.44 0.42 0.59 1.04 1.42 1.54 1.52 1.33
0.01 0.01 0.02 0.04 0.08 0.10 0.10 0.11 0.10 0.08 0.07 0.06 0.06 0.07 0.10 0.19 0.34 0.43 0.41 0.46 0.37 0.41 0.56 0.73 0.67 0.77 0.60 0.54 0.40 0.39 0.38 0.34 0.28 0.34 0.41 0.48 0.52 0.65 0.89 1.24 1.46 1.50 1.40
0.03 0.03 0.04 0.10 0.14 0.18 0.21 0.23 0.25 0.27 0.23 0.22 0.25 0.24 0.25 0.32 0.51 0.55 0.54 0.54 0.64 0.74 0.90 0.88 0.87 0.93 0.77 0.69 0.61 0.62 0.53 0.43 0.38 0.43 0.46 0.54 0.54 0.56 0.71 0.96 1.22 1.31 1.30
0.09 0.09 0.11 0.19 0.30 0.35 0.36 0.39 0.41 0.39 0.37 0.41 0.40 0.37 0.42 0.50 0.67 0.79 0.66 0.67 0.93 1.04 1.09 1.15 1.10 1.12 1.11 1.01 0.93 0.76 0.67 0.62 0.52 0.54 0.54 0.61 0.58 0.44 0.59 0.87 0.94 0.94 1.07
0.25 0.26 0.29 0.37 0.50 0.59 0.66 0.72 0.64 0.60 0.58 0.58 0.55 0.54 0.58 0.66 0.82 1.06 0.97 1.02 1.18 1.36 1.32 1.25 1.46 1.52 1.42 1.32 1.13 1.02 0.77 0.68 0.64 0.58 0.57 0.58 0.60 0.53 0.43 0.53 0.73 0.75 0.92
0.55 0.59 0.55 0.62 0.79 1.10 1.34 1.23 1.05 0.85 0.76 0.76 0.70 0.69 0.77 0.89 1.05 1.33 1.21 1.30 1.53 1.68 1.68 1.69 1.77 1.77 1.65 1.61 1.33 1.08 0.86 0.68 0.66 0.62 0.57 0.56 0.54 0.47 0.40 0.40 0.47 0.48 0.55
0.76 0.83 0.85 1.00 1.27 1.49 1.51 1.52 1.53 1.39 1.23 0.98 0.82 0.81 0.92 0.99 1.15 1.50 1.40 1.68 1.90 1.93 1.97 1.96 2.07 1.94 1.79 1.90 1.69 1.22 0.80 0.57 0.47 0.44 0.45 0.46 0.41 0.43 0.47 0.55 0.61 0.68 0.66
0.93 1.12 1.36 1.72 2.00 1.88 1.98 2.15 2.06 1.90 1.45 1.18 1.04 1.02 1.07 1.21 1.33 1.50 1.77 1.89 1.99 2.00 2.00 1.99 2.00 1.81 1.63 1.84 1.80 1.54 1.05 0.71 0.52 0.46 0.50 0.47 0.47 0.47 0.46 0.53 0.65 0.80 0.74
1.39 1.61 1.86 2.15 2.24 2.17 2.28 2.31 2.02 1.89 1.53 1.40 1.32 1.22 1.23 1.41 1.51 1.65 1.81 1.92 1.85 1.83 1.79 1.88 1.86 1.74 1.59 1.64 1.77 1.72 1.34 0.96 0.69 0.51 0.53 0.57 0.70 0.68 0.52 0.47 0.47 0.44 0.45
1.80 2.15 2.42 2.44 2.42 2.35 2.41 2.35 2.21 2.01 1.76 1.70 1.72 1.51 1.36 1.36 1.42 1.52 1.59 1.71 1.75 1.74 1.61 1.58 1.62 1.65 1.59 1.47 1.60 1.65 1.56 1.34 1.09 0.69 0.50 0.51 0.65 0.70 0.64 0.53 0.47 0.42 0.42
1.72 2.03 2.27 2.44 2.46 2.36 2.31 2.25 2.21 2.01 1.80 1.70 1.63 1.50 1.43 1.46 1.38 1.36 1.42 1.55 1.61 1.56 1.48 1.54 1.62 1.61 1.49 1.37 1.42 1.48 1.59 1.57 1.39 1.09 0.71 0.59 0.59 0.56 0.62 0.57 0.47 0.41 0.43
1.56 1.81 1.98 2.09 2.12 2.09 2.02 1.98 1.99 1.94 1.91 1.76 1.60 1.60 1.63 1.55 1.38 1.31 1.33 1.41 1.45 1.41 1.36 1.39 1.46 1.45 1.37 1.38 1.39 1.39 1.39 1.37 1.38 1.36 1.04 0.83 0.70 0.50 0.49 0.50 0.50 0.48 0.49